Theta_e
350 352 356 358 358 358 358 358 358 357 356 356 356 357 356 356 356 355 356 355 355 354 354 354 354 354 354 354 353 353 353 352 351 351 351 351 351 351 350 349 349 349 349 348 348 347 347 347 346 345 346 347 347 347 348 348 347 346 346 345 344 343 342 342 341 344 342 341 345 347 347 347 348 347 346 345 345 344 344 342 340 337 335 337 339
349 354 357 358 357 358 358 357 358 357 357 357 356 357 357 356 356 356 356 356 355 355 355 354 354 354 354 353 354 354 354 353 351 351 350 350 350 350 350 349 349 349 349 347 346 345 344 344 344 344 345 346 346 346 346 346 345 345 344 343 343 342 342 342 342 343 343 343 344 344 346 346 346 346 346 345 344 343 342 341 341 337 335 340 340
352 355 358 358 358 358 358 357 357 357 357 356 356 356 356 357 356 356 356 356 355 355 355 354 354 354 353 353 353 353 353 353 353 350 350 349 349 349 349 349 348 348 349 348 347 346 345 345 345 345 345 346 346 345 345 345 345 345 344 342 342 343 344 344 343 342 343 343 343 344 345 345 345 345 345 345 342 341 340 338 338 338 335 337 335
351 354 358 358 357 357 357 356 356 356 356 355 356 356 356 356 356 356 355 355 354 353 353 354 354 354 354 354 353 352 352 352 352 350 349 348 348 349 349 349 349 349 350 350 350 348 347 345 345 346 345 345 345 345 345 345 345 344 344 344 344 344 344 344 344 344 344 344 344 342 341 337 341 344 344 344 343 342 341 339 337 338 337 336 336
352 354 357 358 357 357 356 356 356 356 355 355 356 356 356 356 356 355 355 354 354 354 354 353 353 353 353 352 352 352 352 352 351 351 349 349 349 349 349 349 348 349 350 349 350 348 348 348 345 343 343 344 344 345 345 345 344 344 344 344 344 343 344 343 343 344 343 343 343 340 333 335 336 342 342 341 340 340 339 340 340 340 340 340 338
353 354 355 355 356 356 356 355 356 355 355 355 356 356 356 356 355 355 355 355 354 354 353 353 353 353 351 351 351 351 352 353 352 351 350 349 349 348 348 348 349 349 349 348 348 348 347 347 347 346 345 345 345 345 345 345 345 344 344 344 343 344 343 343 343 343 342 342 341 334 334 334 335 338 343 343 341 341 341 340 340 338 338 338 338
354 355 356 356 356 356 356 356 355 355 355 356 356 356 356 356 355 355 354 354 354 354 353 353 352 351 350 350 350 351 352 352 352 352 350 349 349 348 348 348 348 349 348 347 347 348 348 347 346 345 344 344 345 346 345 345 345 344 344 344 343 344 343 342 342 342 341 337 330 329 330 333 334 335 341 343 343 342 340 339 337 337 337 337 337
355 356 357 357 356 356 355 355 355 355 355 356 356 356 356 356 356 355 354 354 354 354 353 352 351 350 349 350 350 350 350 351 352 352 353 349 348 348 348 347 347 347 347 347 347 349 348 348 347 345 344 344 345 345 346 345 344 343 343 343 343 342 340 341 342 341 339 333 329 330 330 334 335 337 342 344 343 341 339 337 336 337 335 336 338
352 355 357 357 356 355 354 353 355 355 355 356 356 356 356 356 355 355 355 354 354 353 353 351 350 349 349 349 349 350 349 350 350 351 351 352 349 348 347 346 347 347 346 347 347 347 347 346 345 345 345 345 346 346 344 344 344 343 342 342 342 340 339 339 339 342 338 332 330 330 331 332 333 336 343 343 341 340 340 339 338 337 335 335 337
352 354 357 356 354 354 353 353 354 355 355 355 356 356 356 356 355 355 354 354 354 353 352 351 349 348 349 349 348 349 349 349 349 350 351 352 352 352 352 349 348 347 347 347 347 347 346 345 345 345 346 346 345 345 345 344 343 343 342 342 341 340 340 340 338 340 331 331 331 331 333 341 334 335 340 340 338 338 337 337 339 335 334 336 335
351 354 356 356 356 354 354 354 354 354 354 355 355 355 356 355 355 355 355 354 354 353 352 350 349 349 349 349 348 349 348 349 349 350 351 351 352 352 351 349 348 347 347 347 346 346 346 345 345 345 347 347 346 345 344 344 343 343 342 341 340 340 341 340 339 331 331 331 330 331 340 341 330 334 342 340 338 337 337 337 335 335 335 334 339
351 354 355 355 356 354 354 354 354 354 353 353 354 354 353 354 354 354 354 354 353 353 352 351 350 349 349 349 349 349 349 349 349 349 349 350 350 350 351 351 348 347 347 346 346 346 346 346 345 345 346 346 346 344 343 343 342 342 341 341 341 340 339 339 332 330 330 331 332 331 333 333 332 337 341 340 338 338 337 337 337 337 336 339 339
351 352 352 352 354 354 353 353 354 353 353 354 354 353 352 353 353 353 353 353 352 352 352 351 351 350 350 349 349 349 349 349 349 349 348 348 349 350 351 351 349 348 347 347 347 346 346 346 345 344 344 344 344 344 344 343 342 341 341 341 342 340 339 338 331 331 331 330 331 331 330 330 333 340 340 340 339 339 338 337 336 336 336 339 339
349 350 351 353 354 357 353 352 353 354 354 353 353 353 353 353 353 353 352 352 352 352 351 351 351 351 351 350 351 351 350 349 348 349 348 348 348 348 349 349 348 348 347 347 346 346 346 345 344 343 343 342 342 343 343 343 342 342 341 342 342 340 340 339 336 331 331 330 331 330 329 332 332 340 339 338 338 337 337 337 336 336 336 338 338
348 350 351 352 352 354 357 353 353 353 352 353 352 352 352 352 350 352 352 352 352 351 351 351 351 351 351 351 351 351 351 350 349 349 348 348 347 347 347 348 348 347 347 346 345 346 346 345 344 343 342 342 342 342 341 342 342 342 342 342 342 341 339 333 332 330 331 332 331 334 329 329 341 339 339 339 338 338 337 336 336 335 335 335 336
348 348 348 349 351 352 353 356 353 351 351 352 352 352 352 351 351 352 352 351 351 351 351 351 351 351 351 351 351 351 351 350 350 349 348 348 347 347 347 347 347 346 346 345 345 346 345 344 343 342 342 341 342 341 341 342 343 343 343 342 343 342 339 336 330 330 330 329 330 331 328 333 342 340 338 338 338 337 337 337 336 336 336 336 335
346 348 347 348 349 350 352 353 353 353 351 351 352 351 351 351 351 351 351 350 351 351 351 351 352 352 351 351 351 351 351 351 351 350 349 348 348 347 347 347 346 346 346 346 346 345 344 343 343 342 342 342 342 342 342 343 343 343 343 342 343 342 340 337 331 329 329 332 333 331 328 332 340 338 338 338 337 336 336 336 337 337 337 336 336
346 347 346 347 347 349 350 350 351 351 351 352 352 351 351 350 350 350 350 350 351 351 350 351 351 351 350 350 351 351 351 351 351 350 349 348 348 347 347 347 347 346 346 346 345 345 344 343 343 342 341 342 342 343 343 343 343 343 342 342 343 342 340 338 330 330 330 335 331 333 330 339 341 339 338 338 337 337 337 337 337 336 336 336 337
343 344 346 346 347 348 349 350 351 351 350 350 350 351 351 350 350 350 350 350 350 351 351 351 351 350 350 350 351 351 351 351 350 349 349 348 348 346 347 347 346 346 346 345 345 344 343 343 343 342 341 341 342 343 342 341 341 342 343 343 342 341 341 337 331 330 332 332 329 329 327 340 340 338 339 338 337 337 335 334 335 335 337 338 337
340 343 344 346 347 347 349 350 351 351 350 349 349 349 349 348 349 349 348 346 346 348 348 349 348 346 346 347 349 351 350 350 351 349 349 349 348 346 346 347 347 346 345 345 345 344 343 343 343 342 342 341 342 342 342 342 341 342 342 342 340 341 334 331 331 331 329 329 331 327 335 340 340 338 339 338 337 335 335 335 335 338 337 336 337
337 339 341 344 346 346 347 348 350 350 350 350 349 346 346 346 346 343 342 343 343 344 345 343 343 344 343 342 340 340 340 341 336 337 343 342 346 348 347 347 348 347 346 345 345 344 344 343 343 343 342 341 342 342 343 342 342 343 342 340 341 331 331 329 330 331 329 330 332 327 338 340 340 339 339 338 337 336 335 334 334 334 337 339 338
333 335 339 342 343 345 346 347 349 350 349 345 344 344 343 343 342 344 341 340 342 343 341 339 344 335 339 335 333 339 339 333 336 342 336 337 338 344 348 346 348 347 346 346 345 345 344 344 343 342 342 342 342 329 330 336 340 342 342 340 331 329 331 329 328 329 329 328 329 332 339 339 338 338 339 338 337 336 335 334 334 335 339 338 338
330 332 336 341 341 342 344 346 348 348 343 341 342 343 340 340 343 343 339 340 342 341 340 342 335 333 333 333 335 334 336 335 335 338 336 336 336 338 344 348 348 347 347 346 345 345 345 344 344 343 342 342 330 326 324 325 326 336 338 329 326 330 330 328 328 329 329 328 328 336 338 338 338 338 337 338 337 336 335 334 334 334 336 337 337
329 333 334 341 342 341 343 345 346 346 342 340 342 342 341 342 343 342 339 338 340 340 339 338 336 333 334 333 334 335 338 335 342 344 341 336 336 340 342 344 346 347 346 345 345 345 345 344 344 344 341 335 325 324 324 322 324 324 324 326 326 329 329 329 328 328 328 332 329 337 339 340 338 337 338 337 337 336 335 335 334 334 334 334 336
331 334 338 340 340 341 341 343 346 344 335 332 337 342 343 343 344 343 340 339 339 338 338 335 334 335 333 333 333 334 334 336 336 338 334 334 333 333 336 333 333 336 346 338 337 337 338 334 335 337 328 328 328 325 324 322 324 325 325 326 327 327 328 330 329 328 328 328 329 338 340 340 339 338 338 337 336 336 336 335 334 333 333 333 334
332 334 338 340 340 341 339 344 346 342 335 333 336 342 343 342 343 343 341 338 336 336 336 334 333 334 334 334 333 332 332 335 337 336 333 332 332 333 332 330 330 335 337 338 336 333 332 332 332 331 330 328 327 326 324 327 324 325 325 325 326 327 329 329 328 328 329 328 331 339 341 341 341 339 338 337 337 337 336 334 334 334 333 333 333
334 336 338 338 339 339 342 345 344 337 332 333 336 344 342 342 343 343 339 336 335 333 333 333 333 333 335 337 333 332 334 335 333 332 331 331 331 333 332 330 332 335 335 334 334 334 333 332 332 331 330 329 328 326 325 324 324 326 326 326 327 329 329 329 328 329 329 329 334 340 341 341 342 340 338 338 337 337 336 335 335 334 333 332 333
334 336 332 331 338 342 342 343 338 335 334 335 336 342 341 340 341 345 339 339 336 332 332 333 334 333 336 338 338 334 335 334 331 330 330 330 331 332 330 329 330 331 335 333 333 334 334 332 331 331 331 330 329 327 326 326 324 325 326 326 326 329 329 329 330 330 329 329 331 339 340 341 341 341 338 338 338 337 337 335 335 334 333 332 332
334 328 326 329 333 340 341 339 338 336 334 335 335 339 338 337 339 339 337 343 335 333 332 333 333 334 336 339 338 333 333 332 331 332 330 328 329 330 331 330 330 330 332 332 333 334 333 330 331 331 329 329 327 327 327 326 324 324 323 326 328 328 328 329 329 329 330 329 330 334 341 341 340 340 339 338 338 338 337 336 335 335 334 333 332
334 327 326 329 332 338 339 338 337 333 333 334 335 337 335 333 334 334 334 342 335 334 333 332 332 333 334 337 336 334 333 332 332 331 330 328 331 330 330 329 329 330 331 332 333 334 333 329 329 331 332 327 328 327 326 325 325 324 324 325 328 329 328 329 331 332 332 332 331 331 340 341 340 338 340 339 339 338 338 337 336 336 334 334 334
329 327 329 328 332 335 337 338 336 336 335 335 335 335 334 332 332 331 330 332 333 334 333 331 332 334 333 333 333 332 332 332 332 332 331 328 329 330 329 328 327 330 332 331 332 334 333 331 329 329 328 327 327 327 327 327 326 327 325 326 326 327 328 328 330 331 332 332 332 330 333 339 338 338 339 339 339 338 338 338 337 336 335 334 334
324 324 328 332 332 336 338 337 332 333 336 336 336 333 332 331 332 329 329 330 332 330 329 331 335 332 333 330 330 329 332 331 331 332 333 329 330 331 331 329 329 331 332 331 330 331 330 332 331 329 327 327 327 327 328 328 327 327 327 327 326 326 325 327 328 329 330 331 330 330 330 332 338 339 339 338 340 339 339 339 339 337 336 335 335
326 326 323 323 333 336 334 334 335 337 337 336 334 333 332 333 330 329 330 333 332 330 329 330 331 332 333 330 328 328 332 331 329 330 336 331 331 331 332 332 332 333 333 332 333 330 329 328 328 328 327 327 328 327 328 327 327 327 328 328 327 326 326 326 326 328 330 330 329 329 330 330 330 337 339 339 339 339 340 340 339 339 337 336 336
325 325 325 323 326 331 335 333 334 335 334 334 334 334 333 333 331 330 333 331 329 328 331 331 334 333 332 330 328 328 330 330 331 331 331 330 329 328 331 331 330 332 331 331 330 327 327 327 327 328 331 326 326 324 325 326 326 327 328 328 327 326 326 326 324 325 328 328 329 328 330 330 329 329 330 337 339 339 338 340 340 339 339 337 335
325 325 324 324 325 326 333 333 332 332 332 331 334 334 334 333 331 330 331 330 330 329 328 328 330 331 330 330 330 330 330 329 330 330 332 332 329 329 329 330 331 330 330 329 329 327 327 327 326 325 324 325 325 326 324 324 324 325 325 326 326 327 326 326 326 325 324 324 327 329 330 331 329 329 331 328 336 338 339 339 341 341 339 338 336
324 325 326 326 324 327 331 329 329 327 328 330 332 333 333 331 330 335 329 330 330 328 326 327 328 329 329 329 330 330 329 329 329 329 331 330 329 327 328 329 329 329 328 328 328 327 326 326 325 325 324 322 324 321 322 322 323 324 326 326 325 326 325 325 326 325 324 324 324 325 328 329 329 327 333 329 329 332 337 339 339 339 340 340 339
325 325 324 325 326 330 330 327 326 327 327 327 330 330 330 331 331 330 330 329 328 327 327 327 327 325 327 328 328 328 327 328 328 328 330 327 327 327 327 327 328 328 327 326 325 326 326 325 322 323 321 321 321 321 324 324 323 325 328 327 326 326 325 325 325 324 325 323 321 323 323 326 329 336 329 331 329 330 334 337 338 337 338 338 339
325 325 325 327 328 327 326 325 325 325 325 325 325 324 324 328 329 330 334 329 328 329 328 328 327 326 326 326 327 327 328 326 325 327 330 331 328 328 327 327 328 326 325 325 324 324 323 323 322 321 321 321 320 321 323 324 327 328 327 325 325 326 326 326 326 327 323 323 322 322 322 322 324 328 329 329 330 330 330 334 336 337 337 336 338
325 327 327 328 327 326 326 327 323 323 322 322 322 319 320 324 327 328 327 327 326 326 326 326 327 326 325 324 325 327 328 324 326 327 326 333 329 328 327 327 327 326 325 324 324 323 323 321 322 322 323 322 321 322 323 324 325 324 325 326 328 328 327 327 326 325 324 324 325 326 326 324 325 326 325 328 329 329 329 330 330 332 334 336 337
327 327 327 326 326 325 325 323 322 321 322 321 319 318 322 325 325 323 323 323 323 324 323 324 325 325 327 325 324 324 328 327 324 327 330 331 328 326 325 324 325 325 324 323 322 322 321 321 321 323 324 326 326 325 325 325 323 323 322 324 326 326 328 326 326 326 323 323 323 324 323 324 322 323 325 326 328 329 329 330 331 332 333 334 336
327 326 325 325 325 325 323 321 321 321 321 318 315 314 319 320 321 320 318 317 320 319 320 320 322 323 325 327 327 327 326 327 326 328 329 333 328 327 325 324 325 325 324 322 322 323 324 323 322 323 324 324 325 326 326 323 321 319 321 322 323 326 327 325 324 324 324 322 321 320 320 321 321 321 323 327 327 328 328 329 330 331 332 334 333
325 325 324 325 325 324 323 322 321 320 320 318 316 313 314 320 320 318 317 316 318 317 316 316 318 321 320 321 325 326 326 326 327 327 328 327 326 325 325 324 324 324 324 323 323 326 323 324 322 321 324 325 325 327 324 321 316 317 315 315 319 322 325 323 321 323 324 321 319 318 317 319 321 322 324 327 327 329 330 330 327 328 328 330 331
325 324 324 324 324 323 322 322 321 320 319 319 315 314 314 317 319 316 316 313 315 316 316 317 317 315 315 317 320 322 323 324 324 326 327 326 326 325 325 323 324 326 324 324 323 323 323 323 322 322 321 321 322 323 321 321 318 319 317 314 310 309 312 314 318 320 321 318 317 317 319 320 321 322 324 326 327 325 328 331 328 328 327 328 330
325 324 324 323 323 323 321 321 320 320 319 320 320 316 317 317 317 316 315 315 315 317 314 314 314 314 314 315 316 317 320 320 322 325 325 324 325 325 324 323 323 323 322 321 318 320 321 323 323 320 319 315 316 319 322 320 318 316 310 312 312 308 303 309 311 315 319 319 317 316 317 320 321 322 323 324 326 327 326 329 328 329 330 331 331
324 324 324 323 324 322 321 321 320 320 320 322 318 318 318 316 316 315 316 314 314 312 313 313 315 317 315 314 313 314 315 315 315 318 324 323 321 322 323 322 322 321 321 320 319 320 320 320 319 318 317 316 315 318 321 322 321 323 318 313 307 304 305 313 310 309 316 317 316 318 321 318 319 319 319 321 324 325 327 330 330 330 329 330 331
323 325 324 324 323 321 321 320 319 319 320 318 317 318 317 315 313 313 310 309 309 309 309 310 310 311 312 313 313 314 314 312 313 315 319 321 320 319 319 322 321 321 321 319 319 319 318 319 318 318 318 317 318 317 319 323 323 321 320 317 313 309 309 314 309 305 310 314 317 319 316 316 315 319 319 320 321 323 325 326 328 329 329 331 331
321 324 324 323 322 321 320 319 319 319 319 317 317 318 315 314 314 313 312 311 309 308 308 308 310 310 311 312 311 311 310 311 311 312 314 316 315 315 315 317 318 319 321 318 318 316 320 321 320 318 318 317 317 315 320 320 321 321 320 318 320 318 314 311 307 304 303 307 311 311 314 312 317 320 320 320 319 320 320 322 323 327 331 331 331
320 324 324 323 322 321 319 318 318 320 318 316 317 317 315 313 312 312 312 310 310 310 310 310 310 312 312 311 310 309 310 310 311 312 314 315 314 314 314 315 316 317 318 314 313 314 317 315 316 316 319 318 317 318 318 319 318 316 319 318 319 320 319 319 314 310 306 304 306 310 309 309 310 315 316 315 315 316 318 319 320 323 325 329 331
320 324 324 323 322 321 319 317 318 319 316 316 316 315 316 313 313 312 311 310 312 312 313 313 311 311 310 308 308 308 309 309 311 311 311 313 315 312 312 313 313 313 315 313 312 312 312 312 314 316 316 316 317 317 319 317 315 315 319 318 317 312 308 310 311 311 307 303 302 302 302 305 306 308 309 309 310 311 315 319 323 324 322 326 330
319 322 322 322 321 319 318 317 317 317 315 315 315 314 314 314 312 312 312 313 314 312 311 310 309 309 308 306 306 308 308 308 308 309 310 311 312 312 311 311 311 312 312 310 310 310 310 310 310 311 310 309 309 312 314 312 313 313 313 315 308 304 302 302 302 303 304 306 303 302 300 299 300 303 306 308 309 311 313 314 313 314 316 319 323
317 320 319 321 319 318 317 316 317 316 315 314 314 313 312 313 313 313 313 313 312 311 309 308 309 307 308 306 306 306 307 307 308 308 309 310 310 312 310 310 312 314 311 309 308 308 307 307 307 307 307 307 307 307 307 307 306 305 304 304 303 303 303 301 301 301 300 298 297 297 296 298 300 299 303 306 308 308 308 308 308 307 308 309 311
Wind_Speed
6 8 8 12 14 15 13 14 13 13 13 13 14 15 15 16 16 16 16 17 17 18 18 18 18 17 17 17 17 17 16 17 17 17 17 16 16 16 16 16 16 16 16 17 17 16 16 15 15 14 13 13 14 14 15 16 17 17 17 16 16 15 14 14 13 15 15 14 15 14 14 14 14 15 13 14 15 15 15 15 12 8 5 10 16
11 7 8 11 16 15 14 14 15 14 13 13 14 14 15 15 15 15 15 16 16 17 17 17 17 17 17 16 15 15 15 14 16 17 16 15 15 15 16 15 16 16 16 16 16 15 15 14 14 13 13 13 14 14 14 15 16 16 16 16 15 15 14 13 13 13 13 14 13 14 15 14 14 14 15 14 14 14 14 14 14 6 4 13 15
10 10 9 11 17 16 15 16 14 14 13 13 15 15 14 14 15 15 15 15 15 15 16 16 16 16 16 15 14 14 15 14 13 14 15 14 14 15 15 15 15 16 16 16 17 16 15 14 14 13 13 12 13 13 14 15 16 16 17 15 14 14 13 12 12 12 13 13 13 12 14 15 14 14 15 14 14 13 13 12 12 12 8 15 13
12 9 9 13 18 15 16 17 16 15 14 13 14 14 14 14 14 15 15 15 16 16 15 15 14 15 15 14 14 15 15 14 13 13 13 13 13 13 14 14 14 16 16 17 17 16 15 15 14 13 12 12 12 14 14 14 16 16 16 15 14 13 12 12 12 11 11 11 10 8 4 5 9 14 15 14 14 13 13 13 13 13 14 13 14
10 9 9 12 14 15 17 17 17 15 14 14 14 14 14 13 14 15 15 15 15 15 15 15 15 15 15 15 15 15 14 14 13 13 13 13 12 12 12 13 13 15 16 16 16 16 15 15 14 12 12 12 13 13 14 15 15 16 15 14 14 13 13 12 11 11 10 10 9 6 4 4 4 12 13 14 14 13 13 13 13 13 13 14 13
9 9 9 9 12 15 18 17 17 17 15 14 14 14 13 13 14 15 14 14 15 15 15 15 15 14 15 15 15 14 14 13 13 13 14 13 11 11 12 13 14 14 15 14 15 16 15 15 13 13 12 12 13 14 14 14 15 15 14 14 13 12 12 11 9 9 9 9 7 4 4 4 3 6 14 14 14 13 12 13 13 13 13 14 13
10 8 9 10 11 14 18 18 18 17 16 15 15 14 14 13 15 15 15 14 15 16 16 15 15 15 15 15 15 14 13 13 13 12 12 13 12 12 10 11 12 13 13 13 14 14 15 14 13 12 13 12 13 14 14 14 14 14 14 14 13 11 8 7 9 8 8 5 3 3 3 3 3 3 12 13 14 14 14 12 12 12 12 12 13
9 7 10 10 10 16 18 18 19 17 16 16 15 15 14 13 14 15 15 14 15 16 15 15 16 16 15 15 14 14 14 13 13 12 12 13 11 11 12 9 10 12 13 13 14 14 14 14 12 12 13 12 13 13 13 13 13 13 12 11 9 8 6 4 5 7 7 3 3 3 3 2 1 2 11 13 14 13 13 12 11 12 11 12 13
11 10 10 11 12 18 18 18 17 18 16 16 15 15 15 14 14 15 14 14 14 15 15 16 16 16 15 15 15 14 14 14 13 13 12 13 13 11 12 10 10 13 13 13 13 14 13 13 11 11 12 13 12 12 12 11 11 10 10 9 9 8 3 1 3 6 4 2 3 2 2 3 3 3 10 13 13 13 13 10 10 12 11 11 13
10 9 10 9 11 17 17 17 17 18 17 17 16 16 15 15 14 14 14 14 14 15 15 15 15 15 15 15 15 14 14 14 14 13 12 12 11 12 11 12 14 13 13 13 13 13 12 12 10 9 10 12 12 11 10 10 10 9 9 8 7 6 2 0 1 4 3 3 2 1 1 3 2 3 8 11 12 12 12 11 9 8 8 12 11
10 9 9 10 14 17 18 17 17 18 17 17 17 15 16 15 15 14 13 13 14 14 14 15 15 15 15 15 15 14 14 13 13 13 13 12 11 11 12 14 14 13 12 13 12 12 12 11 9 9 9 9 11 11 10 9 9 9 8 7 6 3 2 2 4 3 3 3 2 0 1 5 2 2 9 11 12 11 11 12 12 11 11 11 13
12 9 9 9 15 17 17 16 16 16 17 16 16 16 16 15 14 15 14 14 14 14 14 13 13 14 15 15 14 14 13 13 13 13 13 13 12 12 12 12 13 13 12 12 11 12 12 11 9 7 8 9 9 9 9 9 9 8 8 7 4 3 7 9 6 5 4 3 1 0 2 2 2 6 11 11 11 11 11 11 12 12 12 13 12
13 11 8 8 10 15 16 16 16 15 17 16 16 15 15 15 15 14 14 13 13 13 14 13 12 12 13 14 14 13 13 13 13 13 13 13 12 12 11 11 12 12 12 12 12 12 11 10 9 6 5 7 8 9 9 9 8 8 7 6 5 8 10 11 5 5 4 3 2 1 1 1 1 10 11 11 12 11 11 10 11 11 12 13 13
13 10 9 9 8 16 15 16 16 16 15 16 15 15 15 15 15 15 14 13 13 13 13 12 12 12 12 12 11 11 11 12 12 12 12 13 12 11 11 11 11 12 12 11 11 11 10 10 8 7 5 5 7 8 8 8 8 8 7 7 7 8 10 7 6 4 3 3 2 1 1 1 2 10 11 11 11 10 10 10 10 10 12 12 12
13 12 9 9 8 9 17 15 15 15 15 15 15 14 14 14 15 14 14 13 13 13 13 12 11 11 11 11 11 11 11 11 11 11 12 12 11 11 11 11 11 11 11 11 10 11 11 10 8 6 4 5 5 7 8 7 7 8 7 7 7 6 8 4 4 3 3 2 0 1 2 2 8 10 11 12 11 10 9 9 9 9 10 11 11
11 11 8 6 8 9 9 14 14 14 13 14 14 15 14 14 14 14 14 13 13 12 12 11 11 11 11 10 10 10 10 11 11 11 11 11 11 11 11 10 10 10 10 10 10 10 10 9 8 6 5 4 5 5 6 7 7 7 7 6 6 5 8 5 4 3 3 2 1 1 1 2 8 10 11 12 11 11 10 10 9 9 9 10 11
10 8 8 7 8 8 8 8 11 15 13 13 14 15 14 14 14 14 13 13 13 12 12 11 11 11 11 10 10 10 10 10 10 10 10 10 10 11 10 10 10 10 10 10 10 10 10 9 8 6 5 4 4 5 6 7 7 8 8 6 5 5 9 7 4 3 3 3 2 2 3 3 7 11 12 12 12 10 10 9 9 9 9 10 11
10 8 7 6 7 7 8 7 9 9 9 12 14 14 14 15 14 13 13 13 12 12 12 12 11 11 11 11 11 10 10 10 10 10 10 9 10 10 10 10 9 9 9 9 9 9 9 8 7 6 5 3 4 5 5 7 8 10 8 6 5 7 10 8 4 3 3 3 3 2 2 4 9 11 12 13 13 11 10 11 10 9 9 9 10
8 10 9 8 8 8 7 7 8 8 9 7 8 11 14 12 13 14 13 13 12 13 13 12 12 10 11 11 10 10 11 12 11 11 10 10 9 8 10 9 9 8 8 8 8 8 8 8 7 5 4 2 4 5 4 5 8 9 8 7 6 8 12 6 4 4 3 3 2 2 3 7 9 11 12 13 14 12 9 9 9 8 9 9 8
6 7 8 7 7 8 7 7 7 7 7 7 8 8 11 12 12 13 13 12 10 8 10 11 10 6 6 6 6 7 9 8 11 8 10 9 8 5 9 10 9 9 8 8 8 8 8 7 6 5 4 2 3 4 4 3 6 9 8 8 6 7 5 5 4 3 2 2 1 1 3 7 9 11 12 13 13 12 10 9 10 10 8 8 8
4 5 6 6 7 9 9 6 7 7 8 8 8 7 9 12 9 14 13 12 9 10 11 12 11 9 7 6 5 4 5 6 7 6 5 2 2 8 9 10 10 9 9 9 8 8 7 6 6 3 3 1 2 4 4 4 4 5 8 8 6 4 4 3 3 3 2 2 2 2 4 5 8 10 11 12 12 13 12 9 9 9 9 10 10
5 5 5 6 6 6 8 8 6 8 7 5 5 6 6 7 6 8 8 7 8 9 4 2 3 3 2 2 1 3 6 8 2 5 3 2 1 3 9 10 10 9 9 8 8 8 7 6 5 4 3 1 4 3 3 4 5 4 6 7 4 4 4 4 3 3 2 2 2 4 6 5 8 10 10 11 12 12 12 10 9 10 10 10 10
3 2 2 5 6 6 5 7 7 6 7 6 5 6 6 5 4 5 5 8 8 7 4 5 2 3 2 2 2 3 6 5 3 7 2 1 2 3 4 9 11 11 10 9 8 8 6 6 5 5 2 3 3 2 2 2 2 7 6 3 2 5 5 4 3 3 3 2 2 5 8 7 9 10 10 11 11 11 11 10 10 9 11 10 10
6 4 2 4 6 6 6 6 6 7 7 5 5 5 6 6 5 4 5 5 6 7 5 5 2 2 3 2 2 3 6 4 7 11 9 3 2 6 6 5 8 11 11 7 8 6 5 4 4 4 1 2 1 1 1 2 2 4 2 2 1 3 5 4 5 4 3 3 3 7 8 7 9 9 10 10 10 10 10 10 10 10 9 10 10
10 6 5 6 7 7 6 4 5 7 10 5 3 5 7 7 5 6 5 5 5 7 4 3 2 1 2 2 2 2 4 4 4 5 5 5 4 2 2 0 0 2 7 3 3 2 3 1 1 1 1 0 0 0 0 2 1 2 2 2 2 2 3 4 4 3 3 2 3 8 9 7 8 9 10 10 10 9 10 10 10 9 9 9 9
11 8 8 6 6 8 8 7 7 9 10 10 12 8 9 6 6 6 5 4 4 5 4 3 3 1 3 1 1 4 3 3 3 6 5 5 4 3 3 3 3 3 2 3 3 2 1 2 2 1 1 1 1 0 0 0 2 1 2 0 2 3 3 3 3 3 3 2 3 9 8 8 8 10 10 10 10 10 10 10 10 9 9 9 9
8 8 6 5 7 6 9 8 7 12 11 11 7 5 6 6 6 5 5 4 4 5 5 4 4 3 3 3 5 4 4 4 4 4 5 4 4 3 3 3 4 4 2 2 2 1 1 2 2 1 1 1 2 1 1 0 1 1 2 1 2 3 4 4 3 3 3 3 4 10 8 9 8 9 10 10 11 10 9 10 9 9 9 9 9
8 6 8 4 6 11 10 8 10 11 12 8 6 5 5 5 5 6 3 4 4 4 4 5 5 4 4 4 4 5 6 5 4 5 3 3 4 3 3 2 2 2 2 1 1 1 1 0 1 1 2 2 3 3 2 2 2 1 0 2 2 4 5 5 5 3 3 3 3 7 9 9 8 8 10 10 10 10 10 9 10 9 9 9 9
10 12 10 11 11 7 7 9 8 7 2 4 5 4 5 5 4 4 5 5 4 3 5 4 4 5 5 6 6 6 5 5 5 5 7 3 2 1 4 4 2 3 3 2 2 2 2 2 1 1 1 3 3 4 3 3 2 1 1 1 3 3 3 3 3 2 3 3 3 4 9 8 8 7 9 10 10 11 10 9 9 10 10 10 9
6 12 10 7 5 4 6 8 7 5 5 3 4 5 6 6 5 5 4 6 5 4 4 5 5 5 4 5 6 6 7 6 5 3 5 6 5 2 2 3 3 4 3 3 3 3 4 3 1 0 0 2 3 2 1 2 3 3 3 2 4 4 3 3 3 4 3 4 3 2 6 7 7 6 7 9 10 10 10 10 9 9 9 10 10
13 6 3 4 5 4 5 9 7 6 5 6 5 4 4 6 6 4 3 2 4 5 5 5 5 5 3 4 5 4 4 5 4 3 3 3 4 5 4 3 2 3 3 2 1 3 3 3 2 1 0 0 1 2 2 4 4 4 2 3 3 4 3 2 3 2 2 3 2 1 2 5 6 5 5 6 9 10 10 10 10 9 9 10 10
9 6 8 6 6 8 9 10 9 6 6 5 3 3 3 3 4 5 5 4 3 4 4 4 5 5 4 5 4 3 3 5 3 3 2 3 3 4 4 4 4 3 4 2 1 1 2 2 2 2 2 3 3 4 2 5 4 3 3 4 3 4 3 3 3 2 2 2 2 1 1 2 3 4 4 4 5 7 10 11 10 10 9 10 10
6 4 2 12 8 6 8 11 11 10 9 7 5 4 4 3 3 4 5 5 4 4 4 4 4 5 5 4 3 3 4 4 3 2 3 4 4 4 4 4 5 4 3 3 3 1 2 3 3 3 4 4 5 3 3 4 5 4 3 4 4 4 2 2 2 2 2 1 1 3 2 1 1 4 4 4 4 5 6 9 10 10 10 10 10
9 9 7 4 13 7 3 6 9 10 10 9 8 7 6 4 3 3 1 1 2 2 3 3 3 3 3 3 4 6 4 3 4 5 2 2 0 1 1 3 3 4 4 5 4 3 3 3 3 4 3 5 4 2 2 5 4 4 4 3 4 3 3 4 2 0 1 2 1 2 3 3 2 1 2 4 5 5 5 6 9 9 9 8 9
10 8 10 12 4 15 2 2 4 6 7 7 9 7 5 4 4 3 4 3 4 4 4 3 2 1 2 3 4 5 4 3 3 5 4 1 1 1 1 1 3 3 4 4 5 4 4 4 5 5 3 4 4 4 3 4 4 5 4 4 5 4 4 4 3 3 2 1 3 3 3 5 3 2 2 2 4 6 6 6 5 8 9 9 10
13 11 11 13 12 12 3 4 4 4 5 8 7 8 6 5 4 3 2 0 4 5 4 4 3 1 1 3 4 3 3 4 4 5 6 4 2 2 6 2 3 4 4 4 4 5 4 4 2 5 5 2 4 3 4 4 4 5 4 5 5 5 4 3 3 2 2 3 2 1 4 4 4 2 3 3 3 4 6 6 6 6 7 9 10
9 10 8 7 8 7 4 6 5 6 6 7 8 6 6 4 3 3 2 2 4 5 4 4 3 2 0 1 2 2 3 4 4 5 6 5 5 6 4 9 3 2 4 4 4 4 5 5 3 2 2 4 3 3 4 3 3 4 5 5 3 4 4 5 7 2 2 4 2 2 0 3 3 5 3 4 4 4 5 7 7 7 6 8 8
8 10 9 8 9 7 6 6 5 5 6 7 6 6 5 5 4 4 3 4 4 5 4 3 2 1 2 1 1 2 3 3 3 3 5 5 6 7 7 7 3 4 2 5 4 4 4 4 4 2 2 4 4 4 2 3 2 4 4 4 1 3 3 1 0 6 2 2 3 2 2 1 1 3 3 3 4 4 5 6 9 8 8 7 8
9 11 8 7 6 6 6 6 6 6 5 6 6 7 7 7 6 6 6 5 5 5 3 4 2 1 1 2 1 2 3 3 3 3 3 5 5 4 1 1 2 2 3 5 4 4 4 3 3 3 3 3 4 3 3 3 3 2 4 2 2 4 4 2 1 3 2 3 2 2 2 3 2 1 2 3 4 4 5 5 4 4 5 7 6
9 10 10 9 9 8 6 5 6 6 5 6 6 7 7 7 8 6 6 5 4 3 4 2 3 2 2 2 2 1 2 2 2 3 4 6 8 5 5 2 3 4 5 5 4 4 4 5 5 3 4 3 3 1 3 3 3 4 3 2 2 2 3 4 4 2 0 1 1 2 4 4 3 3 2 2 2 4 4 4 4 5 4 5 6
8 11 12 11 12 11 9 8 5 5 7 6 5 6 7 6 5 5 6 3 4 3 3 4 5 3 3 2 2 1 2 2 2 3 4 5 6 7 7 5 4 4 4 4 4 5 3 4 3 2 3 3 2 1 0 2 4 2 2 3 3 4 2 2 1 1 1 1 2 3 3 4 4 4 5 4 3 1 1 3 4 4 3 2 2
8 11 13 12 10 11 11 8 5 5 6 5 5 4 3 5 6 5 6 5 5 4 1 2 2 4 3 2 1 1 1 2 2 3 3 4 3 4 4 4 5 5 4 4 2 4 3 4 3 1 1 2 2 1 3 2 2 2 2 1 3 2 2 4 4 4 2 1 1 2 3 3 4 4 5 4 3 2 3 0 2 6 7 8 7
9 10 10 10 10 10 10 8 6 6 5 5 5 4 2 3 5 4 6 4 3 3 3 1 2 4 4 2 0 0 0 0 2 2 2 2 3 3 3 3 3 4 5 4 4 3 3 4 4 5 2 2 1 0 1 2 2 0 2 3 1 1 1 2 2 3 5 4 3 2 2 1 2 3 4 4 3 3 0 4 2 3 4 7 9
11 8 9 11 9 9 9 9 8 6 6 5 5 4 5 5 6 6 4 5 5 4 5 3 3 4 4 3 3 1 1 1 2 2 2 3 3 4 4 3 3 3 4 4 3 2 2 4 4 2 3 2 1 0 1 2 3 3 1 1 1 1 0 2 3 3 3 4 2 2 2 2 3 2 2 4 5 3 2 3 1 2 3 5 6
10 10 10 10 8 10 10 11 9 8 6 6 7 7 7 7 7 6 6 7 5 5 6 5 3 3 3 4 3 2 3 3 2 3 3 3 3 4 4 4 4 3 4 5 5 5 3 2 2 3 3 4 2 1 2 3 3 0 2 3 2 2 1 2 1 2 3 3 4 4 3 3 3 3 2 3 3 4 4 1 5 5 6 7 5
8 8 8 9 8 8 10 10 8 8 8 7 8 8 8 9 7 7 6 5 5 5 6 5 4 5 4 1 3 3 4 4 3 3 4 3 4 3 3 4 3 4 4 4 4 3 2 2 2 2 2 1 4 3 2 1 3 2 6 3 5 2 1 2 1 0 3 1 2 3 2 3 3 3 3 2 2 4 4 3 3 3 2 2 3
4 6 6 8 8 9 10 10 9 8 8 8 8 9 8 8 8 8 7 7 7 1 1 3 5 3 3 4 3 3 3 6 4 4 4 4 4 4 4 4 4 4 3 4 4 2 3 2 2 2 3 2 2 2 4 3 2 3 2 2 4 1 1 2 0 1 2 2 3 3 5 7 5 4 4 4 3 3 3 3 4 4 4 2 1
4 6 6 6 9 9 10 10 9 9 8 9 9 10 10 7 6 6 6 7 7 6 5 4 3 3 5 4 4 3 3 4 5 4 5 5 6 5 5 5 5 4 4 4 3 2 3 3 3 2 3 2 3 4 4 3 3 1 3 4 4 4 3 4 2 2 2 0 4 4 1 6 6 3 4 6 7 6 6 4 2 3 4 3 2
3 6 7 7 8 8 9 9 10 10 9 11 10 8 10 9 9 7 6 3 5 5 3 3 4 3 5 2 4 3 4 4 5 5 5 5 5 6 6 6 6 5 5 5 3 4 4 4 4 4 3 4 2 3 4 4 4 3 4 3 3 4 5 3 2 3 2 1 1 1 4 5 3 4 6 5 5 5 5 5 5 3 2 4 5
1 1 2 4 6 7 9 10 10 9 10 10 11 9 9 9 9 7 9 6 5 4 4 4 4 3 4 3 3 4 5 5 4 5 5 5 6 6 6 6 6 6 5 5 4 5 4 4 3 4 4 5 3 4 4 3 4 2 1 4 2 1 3 3 4 3 3 2 1 1 2 3 6 5 4 7 7 7 8 8 9 9 8 7 6
3 4 3 4 6 8 10 9 8 7 9 11 11 10 8 8 9 9 10 9 6 6 6 4 4 3 5 3 3 3 3 6 5 4 5 5 5 5 6 5 5 5 6 5 5 5 4 5 5 6 5 5 5 6 6 4 5 5 5 5 5 3 3 2 1 3 2 2 3 3 3 2 1 3 4 4 4 6 7 7 8 8 7 7 8
Wind_Direction
174 157 159 161 153 150 148 144 140 134 133 132 127 122 119 118 116 114 112 110 109 108 109 108 106 105 105 106 107 108 108 110 111 110 110 111 111 109 108 106 105 104 105 104 101 99 100 103 106 108 110 111 110 110 109 108 108 109 106 105 104 104 103 103 99 85 86 88 84 95 99 102 100 96 88 78 76 76 73 71 70 67 49 60 67
163 163 156 159 155 149 147 145 141 137 135 134 130 125 122 120 118 115 112 110 108 108 108 108 107 107 107 105 104 103 102 102 106 108 109 110 111 110 108 108 107 107 107 105 101 101 103 105 105 106 108 113 113 112 111 112 111 110 108 107 107 104 101 99 96 94 98 95 87 89 95 94 92 97 94 88 83 79 79 78 76 63 68 69 67
144 153 156 157 153 150 148 146 140 139 136 137 133 128 126 123 121 116 112 108 106 106 106 106 106 106 106 104 102 100 98 96 96 106 111 112 112 112 113 113 110 111 111 109 107 105 102 101 101 104 104 107 108 112 113 113 114 112 111 109 108 104 103 101 96 97 96 99 93 86 94 95 98 95 94 92 89 82 81 82 80 76 73 70 69
143 151 156 153 153 147 147 146 143 141 141 140 136 131 128 125 121 117 112 109 108 107 107 106 104 104 105 104 104 102 101 99 98 101 107 106 107 111 115 115 116 116 115 113 112 111 110 107 105 105 106 108 111 112 115 115 115 111 110 110 107 106 105 101 96 95 92 81 79 77 63 71 89 97 96 95 94 90 88 88 85 83 84 80 74
142 146 145 150 152 147 147 145 146 144 144 143 138 134 131 127 122 118 115 112 110 109 110 109 107 106 106 107 105 103 100 98 98 99 102 104 106 109 111 114 114 117 117 117 115 113 111 110 108 106 109 113 114 113 114 116 116 115 112 111 109 109 105 99 97 95 89 81 73 63 64 82 99 97 103 103 96 92 89 86 86 84 80 83 82
143 143 143 145 147 150 146 146 147 146 145 144 141 138 134 130 126 122 116 116 114 113 113 113 110 109 109 108 106 104 99 95 97 100 104 105 104 104 116 120 121 117 118 116 117 117 114 109 108 109 108 110 111 113 113 116 116 115 115 113 114 111 105 91 84 88 88 77 63 58 71 74 73 99 106 107 105 98 90 86 82 80 81 76 76
137 135 138 144 145 147 146 147 147 146 145 145 143 140 137 131 127 123 121 119 118 117 117 116 113 112 111 109 107 102 98 95 92 94 101 109 112 114 121 118 117 117 112 113 114 116 117 113 106 106 110 114 115 113 115 117 116 117 122 118 110 107 76 61 86 83 82 63 46 37 34 47 82 108 109 112 109 100 94 86 84 86 81 83 81
133 133 139 142 144 145 145 147 147 147 148 147 145 142 139 133 130 126 126 124 122 121 120 118 117 117 115 112 109 105 101 96 93 91 90 102 110 117 114 114 120 115 114 111 112 117 113 108 107 106 109 113 115 113 109 109 111 116 120 121 101 81 68 71 74 94 88 48 37 40 47 52 41 101 112 106 107 104 99 95 90 84 83 77 76
139 138 131 138 139 142 145 148 147 149 149 149 148 145 142 137 132 130 129 128 124 123 122 121 120 119 117 115 112 109 107 104 101 99 96 101 116 119 123 124 103 106 115 113 117 117 115 111 109 109 110 112 106 102 104 102 98 93 93 91 86 80 54 48 64 97 67 53 52 42 49 56 29 82 112 105 99 101 97 93 95 90 86 85 80
136 136 133 130 138 140 144 146 148 150 151 151 150 148 144 140 134 132 131 130 126 125 124 123 123 121 120 117 116 114 111 110 109 105 101 99 100 109 112 111 117 120 119 124 123 120 116 112 113 110 109 113 113 107 102 101 99 97 95 93 90 87 205 266 173 97 83 82 71 47 53 95 63 79 113 109 106 107 109 106 108 115 110 83 86
132 135 131 131 138 144 146 148 148 151 153 153 150 149 145 140 136 134 133 131 128 127 126 126 125 124 123 120 118 117 117 116 113 112 109 105 100 100 108 120 121 124 126 126 127 123 118 114 115 118 115 111 112 115 113 108 106 106 105 106 106 164 231 199 119 99 108 109 92 326 117 96 73 85 113 109 113 114 109 106 103 102 95 94 84
134 131 132 137 141 141 145 147 147 150 151 152 150 151 147 141 137 139 136 134 133 130 128 129 129 128 124 121 120 122 122 121 117 115 115 112 110 107 105 111 122 125 129 129 125 120 118 119 123 123 122 123 119 116 115 111 105 105 104 103 123 135 137 126 113 117 117 111 99 80 59 71 105 120 112 112 116 115 112 112 106 98 101 90 87
133 136 136 135 136 141 142 143 146 150 152 151 151 149 145 143 143 143 140 138 136 133 132 133 132 129 126 124 126 126 125 124 121 119 118 118 118 118 117 117 121 127 129 128 127 123 123 125 130 135 135 127 120 114 101 97 98 97 92 83 74 120 128 124 114 113 108 104 99 90 99 131 122 122 119 114 116 122 119 111 108 107 102 93 87
138 137 137 134 141 138 136 141 145 148 149 149 149 148 143 144 147 145 144 142 137 134 134 134 132 130 126 125 126 126 124 124 123 123 123 122 122 123 123 123 126 128 129 130 128 128 128 130 137 144 144 123 108 103 96 90 86 85 83 72 65 112 121 106 103 106 113 125 135 152 171 198 154 123 118 117 117 113 107 107 110 111 106 97 93
139 136 132 134 134 135 135 137 142 144 146 147 146 144 142 145 148 147 147 142 136 132 132 132 131 127 122 122 123 125 123 126 126 125 124 124 125 127 128 127 128 129 130 131 130 130 132 136 139 143 147 121 110 103 95 89 82 78 77 73 67 94 119 102 104 112 115 122 176 154 198 192 140 133 126 121 119 111 112 113 112 112 103 94 94
130 126 130 136 134 134 130 135 134 136 140 143 143 142 144 147 149 151 146 135 128 129 130 129 127 124 123 123 126 127 129 131 130 127 127 128 130 132 133 135 134 133 133 134 136 136 138 141 141 152 161 139 121 109 106 95 90 85 80 70 64 104 140 120 112 106 114 131 175 183 191 143 132 129 125 120 118 120 122 121 116 110 108 104 100
120 127 129 139 130 130 128 127 133 136 137 139 143 142 143 147 154 147 136 127 129 128 128 130 129 129 131 134 137 137 136 133 133 132 130 131 132 134 137 138 138 138 137 139 140 141 143 146 149 160 177 154 124 107 107 105 97 91 84 70 62 129 155 130 120 126 145 168 175 179 179 153 141 138 131 123 119 120 122 120 117 116 114 111 108
123 126 129 137 124 122 124 126 133 135 140 139 141 142 147 155 149 134 126 127 128 129 135 140 139 138 143 148 148 144 141 141 139 137 133 131 135 137 140 141 140 139 141 140 141 143 147 151 157 168 193 169 120 105 103 109 104 97 91 79 66 129 152 135 129 149 162 181 174 187 193 184 146 139 134 127 125 127 124 128 125 122 116 110 106
132 138 140 140 137 132 127 128 132 139 138 137 140 147 151 148 130 126 126 128 130 145 150 141 138 145 154 154 147 145 152 151 147 143 135 136 134 137 144 141 142 143 142 147 147 151 155 159 166 179 205 183 112 100 91 100 107 103 97 89 85 127 150 134 147 163 177 164 186 196 208 166 148 148 139 133 130 128 125 120 122 118 116 114 114
133 135 136 143 137 132 132 132 134 132 131 130 134 146 146 128 132 122 122 123 143 144 134 124 120 128 135 129 137 159 155 150 145 137 138 139 134 141 152 151 149 152 154 157 163 163 165 169 175 187 214 194 108 97 89 84 101 107 109 102 95 122 133 141 159 168 153 164 180 219 221 160 159 149 142 139 133 132 132 132 131 131 131 120 116
135 136 135 142 133 134 133 124 131 124 130 132 135 142 123 120 115 114 121 145 144 112 113 131 159 166 154 152 123 142 95 62 39 31 76 36 140 156 163 158 157 159 163 167 170 173 174 177 183 192 224 201 98 75 66 58 74 102 119 121 115 124 154 153 163 147 150 179 170 228 214 168 168 152 146 141 139 138 136 137 135 133 133 131 125
145 135 137 135 126 121 126 131 134 134 121 114 124 108 110 118 114 128 143 148 124 144 134 141 150 82 176 86 32 32 66 79 146 119 45 42 318 234 171 167 162 168 170 170 175 177 179 186 189 203 227 36 58 61 38 28 38 74 120 117 117 158 162 165 156 157 161 186 165 222 195 191 169 157 152 146 143 140 140 144 143 138 133 132 127
57 66 123 128 121 120 128 135 132 121 100 107 108 105 110 114 122 145 149 136 147 142 149 156 143 147 146 162 159 93 87 119 144 109 108 155 290 256 240 179 172 175 175 176 177 183 182 182 197 212 201 86 72 72 70 59 27 43 59 55 125 155 160 157 156 169 173 185 162 213 187 192 174 163 157 154 150 145 145 146 153 149 140 134 134
19 352 265 134 136 139 142 139 128 117 102 67 104 111 140 143 154 159 149 142 157 152 163 153 179 149 166 203 128 123 112 150 164 142 160 191 241 251 226 229 203 180 179 178 185 183 183 188 203 217 163 105 115 94 69 29 43 84 75 80 91 154 156 164 169 180 168 190 170 212 188 201 181 169 163 163 159 156 151 152 155 153 148 148 139
165 201 208 169 151 134 112 119 126 106 87 74 295 169 159 149 165 173 153 161 146 142 144 147 172 153 143 205 146 118 100 144 142 122 147 205 192 233 242 123 206 233 181 163 167 176 164 168 242 244 296 319 22 86 64 14 21 77 103 110 95 160 164 164 173 178 176 191 177 204 191 201 184 173 172 169 168 166 157 161 160 159 156 158 156
163 181 185 161 142 125 152 170 142 100 101 177 195 175 153 149 170 169 151 142 129 132 138 156 175 197 144 151 119 91 117 150 136 133 161 206 206 195 188 155 185 187 168 162 161 142 138 159 212 228 253 254 268 164 133 18 339 40 87 160 118 153 174 174 179 182 189 186 191 202 202 199 191 181 178 175 174 176 173 170 168 166 163 164 166
173 175 158 132 117 182 171 158 121 112 162 202 174 168 143 153 171 155 148 149 135 133 146 161 187 189 160 151 141 137 154 190 152 144 161 192 208 188 182 174 180 174 136 132 155 160 158 174 219 261 307 312 313 333 16 318 261 301 117 232 136 155 176 180 180 190 190 196 201 204 203 202 198 191 180 179 180 184 184 179 174 176 171 171 171
151 128 83 88 214 184 179 141 119 145 193 160 167 144 112 137 160 160 142 164 152 155 153 178 182 187 176 163 158 156 163 190 186 165 178 193 214 163 159 175 141 103 90 82 139 142 121 143 279 334 314 324 324 326 337 313 295 327 106 194 172 160 179 181 178 182 184 194 215 211 203 206 202 202 186 183 185 185 191 192 182 182 181 178 177
140 100 127 194 195 186 159 123 133 147 68 144 161 145 124 132 166 157 148 176 177 183 162 164 190 196 178 167 163 158 167 177 197 178 129 189 245 190 147 171 154 139 130 130 152 171 165 164 195 263 336 332 329 325 336 340 3 46 57 128 137 150 167 162 152 155 184 189 215 238 211 211 208 210 190 191 190 190 189 202 191 183 186 188 195
118 135 178 182 174 185 145 129 120 134 164 190 188 170 156 151 170 185 151 182 177 167 164 167 190 196 180 173 180 173 174 181 192 193 158 167 175 167 145 162 194 162 149 167 180 178 179 149 137 138 348 335 317 327 58 53 59 48 33 103 120 141 154 161 146 178 193 197 207 244 233 216 215 208 201 199 198 195 193 198 198 191 196 196 198
41 33 281 204 168 166 138 116 116 156 186 190 199 174 144 164 167 162 147 202 176 174 163 153 180 198 159 173 192 183 171 184 180 178 199 173 147 161 168 160 191 163 153 180 166 202 170 158 149 123 142 222 360 38 74 87 63 40 36 85 98 107 133 147 151 192 203 224 199 208 285 213 199 203 213 217 208 201 197 198 199 200 202 203 203
30 2 332 305 199 187 147 125 148 166 189 197 176 149 169 187 161 151 174 195 191 202 160 141 168 187 150 171 182 145 161 203 174 166 186 173 169 179 166 155 189 179 158 152 122 127 146 123 111 121 116 94 59 45 44 88 83 55 44 68 74 89 113 140 164 188 222 215 192 184 343 335 273 233 228 236 249 218 203 204 201 203 206 205 205
163 134 292 326 273 185 149 149 162 174 164 159 172 171 177 186 175 192 187 163 182 194 174 149 167 190 174 167 150 172 183 185 147 137 178 196 180 183 180 170 175 162 151 139 121 125 93 92 80 101 100 102 92 57 64 71 74 53 50 52 58 72 70 99 136 165 206 217 7 353 340 349 345 315 285 265 264 279 240 212 213 209 209 207 208
144 160 139 325 318 309 186 144 147 150 151 162 164 171 180 177 184 203 243 168 150 110 85 144 163 194 180 146 170 201 193 153 148 125 138 237 112 261 216 161 140 136 129 137 143 150 131 111 113 97 114 111 111 112 81 82 74 70 57 41 50 41 60 71 43 355 207 139 114 267 312 314 307 299 310 298 284 269 279 268 219 219 216 215 214
138 145 166 157 271 295 259 104 135 144 144 158 157 156 152 152 174 198 223 215 125 96 93 86 103 149 162 196 192 203 193 125 97 108 113 156 307 337 331 85 113 113 119 134 134 132 130 122 129 108 79 101 110 101 98 79 82 73 59 51 48 27 37 53 55 65 57 38 151 189 235 258 268 267 285 301 297 294 289 286 267 223 222 219 218
149 167 177 158 175 235 188 147 145 140 129 131 140 140 149 168 173 188 202 252 82 95 87 84 90 59 236 224 215 197 154 104 105 105 112 109 127 52 356 351 108 101 108 114 122 129 116 101 69 120 125 97 111 71 82 97 88 88 73 63 40 23 11 16 53 74 64 86 67 189 209 232 236 238 245 248 260 274 284 279 274 274 234 215 223
156 160 184 169 168 204 145 138 140 122 120 114 121 127 135 141 132 127 99 63 73 86 88 87 81 91 27 309 283 213 127 111 113 107 114 126 99 68 33 328 360 101 117 106 99 113 125 112 68 40 99 134 107 115 78 82 82 81 87 72 74 88 50 6 337 336 95 72 61 44 27 233 229 229 225 231 240 252 265 268 271 265 270 237 228
175 165 187 168 172 161 141 130 131 125 124 124 117 107 108 107 91 79 67 59 45 74 85 94 94 83 118 94 331 333 66 80 77 101 107 118 120 131 163 210 211 93 71 95 93 85 81 106 109 46 69 111 100 104 90 74 90 95 98 118 168 90 85 58 348 314 342 66 62 36 338 317 314 251 238 232 239 244 250 256 256 259 256 254 246
171 172 171 162 148 129 127 134 130 124 114 104 94 90 90 78 69 66 59 49 44 30 63 90 76 57 66 104 48 13 59 64 75 68 78 110 109 107 60 316 48 66 123 98 101 98 94 77 106 90 47 67 126 130 124 104 68 63 91 98 135 124 117 170 295 275 355 7 348 6 359 1 350 307 259 248 239 237 247 252 253 250 249 247 246
171 162 155 155 139 135 136 131 130 126 113 99 96 86 83 95 92 73 63 59 42 29 3 50 119 99 83 78 77 47 75 87 96 122 122 116 132 159 158 188 146 185 117 108 101 90 90 75 59 62 57 49 40 66 115 114 82 68 47 55 115 142 159 159 159 214 77 309 323 4 2 340 356 340 332 307 260 246 243 237 234 240 248 248 242
166 157 156 154 151 149 139 137 140 127 120 112 92 102 100 95 85 98 108 96 94 49 15 347 343 30 43 58 97 91 108 86 58 72 111 131 134 150 161 155 139 107 103 100 99 91 90 111 99 93 108 87 57 11 54 77 88 34 28 41 357 28 5 22 48 143 99 11 343 16 357 4 352 355 344 345 354 5 265 251 238 247 256 229 233
172 166 159 157 149 144 137 137 131 123 122 116 102 88 115 143 135 134 117 112 111 109 59 331 348 7 37 19 17 46 2 71 60 55 84 106 109 103 106 114 107 104 108 109 109 117 119 97 104 50 23 122 99 59 21 74 28 142 86 352 350 340 20 3 359 342 357 29 353 28 15 20 349 345 346 355 23 27 346 288 50 23 334 335 324
166 176 154 144 145 142 137 139 143 132 127 109 96 110 84 119 121 144 132 106 58 88 102 81 47 49 36 28 36 64 69 43 69 87 101 102 116 109 101 95 98 108 109 119 137 144 166 163 162 170 135 55 127 92 180 101 132 50 73 71 339 20 334 3 331 335 336 329 342 18 357 13 360 341 336 337 352 303 348 83 103 180 217 242 249
167 164 151 148 148 147 141 140 145 135 128 103 93 88 97 79 78 99 80 97 124 109 96 83 75 60 47 52 28 57 67 56 84 103 99 135 136 119 111 95 84 77 98 107 91 91 139 156 163 157 135 93 323 177 143 84 117 167 103 207 168 119 8 337 313 294 325 320 335 354 352 340 339 14 7 334 329 310 322 103 327 280 237 240 234
165 159 158 156 157 155 147 146 148 143 124 110 112 116 104 87 85 72 83 82 63 65 74 51 55 90 76 45 44 100 93 92 99 137 152 127 98 107 114 119 122 112 123 127 139 153 156 144 142 145 160 154 180 150 63 74 69 50 151 97 24 25 205 234 352 297 349 343 333 334 336 347 344 338 347 312 304 306 300 256 185 209 222 234 233
167 162 162 156 147 152 146 146 144 130 126 125 137 133 132 129 126 120 113 100 100 98 112 124 98 94 92 6 24 51 92 90 88 107 116 115 103 97 103 111 109 107 109 121 121 113 123 132 165 149 124 196 153 134 122 135 150 111 70 121 176 174 196 240 85 272 317 246 303 317 348 345 331 330 322 305 302 302 305 293 287 268 239 247 271
167 157 163 152 153 154 153 152 148 139 134 139 144 137 135 142 147 146 144 144 136 159 151 147 122 108 99 86 76 35 61 91 68 86 103 108 108 96 96 95 87 79 77 81 77 119 152 154 156 141 171 150 124 108 129 131 88 26 78 96 74 64 155 136 158 135 6 319 1 355 355 358 356 359 348 340 332 318 297 286 306 321 320 334 271
172 159 162 152 159 161 158 158 152 145 147 147 149 149 144 144 131 132 137 140 141 149 143 134 109 116 87 79 84 66 55 85 96 82 93 99 101 94 97 95 92 87 82 79 105 110 93 75 93 115 126 145 136 137 136 133 132 68 35 45 60 54 49 69 107 144 158 4 320 333 319 350 343 348 344 343 342 336 333 340 335 330 325 323 287
183 177 171 163 164 169 162 156 155 149 154 153 150 155 147 148 143 133 115 115 128 132 125 103 99 90 94 64 82 74 70 64 91 99 94 101 100 105 102 101 102 99 99 98 86 79 87 92 83 83 85 64 83 119 119 157 128 147 127 90 76 59 58 50 43 62 116 105 299 360 320 323 345 332 354 351 354 360 4 2 360 357 336 313 316
77 74 122 148 165 168 166 161 161 158 156 158 151 151 147 141 134 135 130 131 117 99 100 112 107 107 110 105 96 92 96 90 87 100 98 98 108 107 103 104 107 108 102 98 92 81 77 77 79 96 93 85 55 90 115 115 94 102 68 134 103 57 37 34 32 54 47 72 129 307 309 351 358 314 341 9 11 21 38 38 40 35 29 21 6
124 141 161 179 179 178 173 157 154 157 159 156 150 149 152 143 137 139 138 139 139 132 124 116 110 103 127 130 113 103 101 113 106 91 103 109 97 96 100 100 97 98 100 99 94 99 86 82 74 72 69 85 87 89 84 78 92 81 69 86 108 116 144 121 113 47 94 56 28 354 322 294 256 312 324 345 13 28 41 42 39 32 26 23 19